Regional Weather Roundup
Issued by NWS Portland, ME

Current Version | Previous Version | Text Only | Print | Product List | Glossary Off
Versions: 1 2 3 4 5 6 7 8 9 10 11 12 13 14 15 16 17 18 19 20 21 22 23 24 25 26 27 28 29 30 31 32 33 34 35 36 37 38 39 40 41 42 43 44 45 46 47 48 49 50
000 ASUS41 KGYX 280310 RWRGYX WEATHER ROUNDUP FOR MAINE AND NEW HAMPSHIRE NATIONAL WEATHER SERVICE GRAY ME 1100 PM EDT THU APR 27 2017 MEZ002-005-006-010-012-015-018-020-021-024-026-027-029-280400- MAINE CITY SKY/WX TMP DP RH WIND PRES REMARKS PORTLAND FOG 49 49 100 SE5 29.96S VSB 1/2 SANFORD FOG 50 50 100 CALM 29.95F VSB 1/2 WISCASSET CLOUDY 48 48 100 CALM 29.98S FOG ROCKLAND FOG 45 45 100 CALM 29.96F VSB 1 FRYEBURG CLOUDY 57 56 96 SE3 29.93S LEWISTONAUBURN CLOUDY 49 49 100 SE9 29.95S FOG AUGUSTA FOG 54 53 97 SE9 29.95R VSB 1/4 WATERVILLE FOG 56 56 100 S6 29.92R VSB 1 BANGOR DRIZZLE 55 55 100 SE6 29.94S FOG GREENVILLE N/A 55 55 100 VRB7 29.90S MILLINOCKET CLOUDY 56 56 100 SE6 29.94F FOG HOULTON CLOUDY 50 50 100 SE12 29.95S FOG PRESQUE ISLE CLOUDY 54 53 97 SE7 29.96S FRENCHVILLE FOG 42 40 92 E13 29.94F VSB 3/4 CARIBOU LGT RAIN 54 53 97 E7 29.94F FOG $$ NHZ002-005-008-009-011-012-014-280400- NEW HAMPSHIRE CITY SKY/WX TMP DP RH WIND PRES REMARKS PORTSMOUTH CLOUDY 49 48 98 CALM 29.93S FOG ROCHESTER FOG 52 50 93 CALM 29.93F VSB 1/2 NASHUA CLOUDY 57 54 89 SE6 29.93S MANCHESTER CLOUDY 56 51 84 E5 29.92S CONCORD CLOUDY 56 53 90 E5 29.92S LACONIA CLOUDY 57 55 93 SW8 29.92S PLYMOUTH CLOUDY 61 56 84 E3 29.90S BERLIN MOCLDY 59 53 80 SE6 29.87F WHITEFIELD PTCLDY 62 53 72 S13G18 29.87S JAFFREY CLOUDY 61 58 90 S6 29.92F KEENE CLOUDY 62 57 83 S5 29.90S LEBANON CLOUDY 63 57 81 CALM 29.87F MT WASHINGTON FOG 43 43 100 S28G33 N/A VSB 1/4 $$ VTZ005-007-008-280400- VERMONT CITY SKY/WX TMP DP RH WIND PRES REMARKS ST JOHNSBURY N/A 64 56 75 MISG 29.83S MONTPELIER CLOUDY 61 57 87 S14 29.88S BURLINGTON PTCLDY 69 55 60 S13 29.76R $$ MAZ007-012-024-CTZ003-RIZ002-NYZ038-NYZ072-280400- SOUTHERN NEW ENGLAND AND NY CITY SKY/WX TMP DP RH WIND PRES REMARKS WORCESTER CLOUDY 58 53 84 S9 29.94S NANTUCKET CLOUDY 51 49 92 S6 29.97F FOG PROVIDENCE CLOUDY 56 55 97 S5 29.96S HARTFORD CLOUDY 60 56 86 S12 29.92S ALBANY CLOUDY 65 56 72 S12G25 29.85F NEW YORK CITY CLOUDY 58 56 93 SE8 29.89F FOG $$ ANZ081-ANZ082-ANZ150-NHZ014-MEZ023>029-280400- COASTAL MARINE OBSERVATIONS STATION/POSITION TIME TEMP WIND PRES WAVE AIR SEA DIR/SP/G HT/PER (UTC) (F) (DEG/KT/KT) (MB) (FT/S) MOUNT DESERT ROC 0300 42 1014.8S MATINICUS ROCK 0200 44 170/ 10/ 10 1014.2R ISLE OF SHOALS 0200 46 100/ 6/ 6 1013.8S JEFFREYS LEDGE 0206 45 N/A 5/10 CASHES LEDGE BUO 0250 45 44 1014.5F 6/11 GEORGES BANK BUO 0150 49 40 1016.8 8/ 9 $$ .............KEY.............. WCI - WIND CHILL TC - TEMPERATURE IN CELSIUS VSB - VISIBILITY IN MILES HX - HEAT INDEX FAIR- INDICATES FEW OR NO CLOUDS BELOW 12,000 FT, WITH NO SIGNIFICANT WEATHER AND/OR OBSTRUCTIONS TO VISIBILITY.

USA.gov is the U.S. government's official web portal to all federal, state and local government web resources and services.